Flag for U.S.A. Weather past 2 weeks in Knoxville, Tennessee, U.S.A.

Now
79 °F

Passing clouds.


Feels Like: 82 °F
Forecast: 72 / 90 °F
Wind: 3 mph from Southwest

Location: McGhee Tyson Airport

Current Time: Aug 22, 2014 at 12:06:43 AM

Latest Report: Aug 21, 2014 at 10:53 PM


Visibility: 10 mi

Pressure: 30.06 "Hg

Humidity: 77%

Dew point: 71 °F

Location of KnoxvilleLocation

Historic Weather in Knoxville — Graph

°F

Knoxville temperature yesterday

Maximum temperature yesterday: 88 °F (at 5:53 PM)
Minimum temperature yesterday: 64 °F (at 4:53 AM)
Average temperature yesterday: 76 °F

Past Weeks' High & Low Weather Summary

 TemperatureHumidityPressure
High88 °F (Aug 21, 5:53 PM)100% (Aug 7, 6:53 AM)30.15 "Hg (Aug 7, 6:53 AM)
Low59 °F (Aug 14, 3:53 AM)45% (Aug 14, 4:53 PM)29.80 "Hg (Aug 12, 4:53 PM)
Average74 °F81%29.97 "Hg
* Reported Aug 6 9:53 PM — Aug 21 9:53 PM, Knoxville, Weather by CustomWeather, © 2014

Note: Actual official high and low records may vary slightly from our data, if they occured in-between our weather recording intervals... More about our weather records

Advertising

Knoxville weather history for previous 24 hours

 ConditionsComfort  
Time TempWeatherWind HumidityBarometerVisibility
9:53 PM
Aug 21
80 °FPassing clouds.6 mph74%30.05 "Hg10 mi
8:53 PM82 °FScattered clouds.6 mph70%30.05 "Hg10 mi
7:53 PM83 °FPartly sunny.6 mph68%30.06 "Hg10 mi
6:53 PM86 °FScattered clouds.6 mph61%30.06 "Hg10 mi
5:53 PM88 °FScattered clouds.7 mph57%30.06 "Hg10 mi
4:53 PM87 °FScattered clouds.7 mph59%30.06 "Hg10 mi
3:53 PM87 °FScattered clouds.3 mph59%30.08 "Hg10 mi
2:53 PM87 °FBroken clouds.No wind61%30.11 "Hg10 mi
1:53 PM84 °FBroken clouds.7 mph67%30.13 "Hg10 mi
12:53 PM82 °FScattered clouds.No wind70%30.14 "Hg10 mi
11:53 AM78 °FPassing clouds.No wind74%30.15 "Hg10 mi
10:53 AM76 °FScattered clouds.5 mph80%30.15 "Hg10 mi
7:53 AM66 °FPartly cloudy.6 mph96%30.12 "Hg7 mi
6:53 AM65 °FFog.3 mph100%30.10 "Hg5 mi
5:53 AM65 °FFog.3 mph100%30.08 "Hg5 mi
4:53 AM64 °FFog.No wind100%30.08 "Hg0 mi
4:00 AM66 °FFog.No wind100%30.11 "Hg3 mi
2:53 AM67 °FPassing clouds.No wind97%30.07 "Hg9 mi
1:53 AM67 °FPassing clouds.3 mph100%30.09 "Hg10 mi
12:53 AM68 °FPassing clouds.8 mph96%30.09 "Hg10 mi
Weather by CustomWeather, © 2014

See weather overviewHow to use our weather pages